Location: Northam
(31.6525°S, 116.6655°E)
Time: 01:47:20
(UTC+08:00)

Vanguard 1 - All Passes

Search period start: 19 June 2021 00:00
Search period end: 29 June 2021 00:00
Orbit: 650 x 3832 km, 34.2° (Epoch: 17 June)

Date Brightness Start Highest point End Pass type
(mag) Time Alt. Az. Time Alt. Az. Time Alt. Az.
19 Jun - 08:48:44 10° NW 08:52:57 36° NNE 08:58:37 10° E daylight
19 Jun - 11:07:27 10° W 11:13:06 79° S 11:23:10 10° E daylight
19 Jun - 13:27:01 10° WSW 13:35:07 85° SSE 13:50:51 10° ENE daylight
19 Jun - 15:47:13 10° WSW 15:58:32 59° NNW 16:18:23 10° NE daylight
19 Jun - 18:10:43 10° W 18:23:24 27° NW 18:40:17 10° NNE visible
20 Jun - 09:09:11 10° NW 09:13:39 55° NNE 09:20:02 10° ESE daylight
20 Jun - 11:28:22 10° W 11:34:13 74° S 11:44:50 10° E daylight
20 Jun - 13:47:56 10° WSW 13:56:20 86° NNW 14:12:40 10° ENE daylight
20 Jun - 16:08:25 10° W 16:19:53 49° NNW 16:39:08 10° NE daylight
20 Jun - 18:33:53 10° WNW 18:44:52 20° NW 18:58:33 10° N visible
21 Jun - 07:12:54 10° N 07:15:08 14° NE 07:17:27 10° ENE daylight
21 Jun - 09:29:51 10° WNW 09:34:29 76° NNE 09:41:23 10° ESE daylight
21 Jun - 11:49:16 10° W 11:55:22 74° S 12:06:36 10° E daylight
21 Jun - 14:08:50 10° WSW 14:17:34 76° NNW 14:34:18 10° ENE daylight
21 Jun - 16:29:50 10° W 16:41:15 39° NNW 16:59:26 10° NNE daylight
21 Jun - 18:59:11 10° WNW 19:06:28 13° NW 19:14:43 10° NNW visible
22 Jun - 07:32:16 10° NNW 07:35:48 23° NNE 07:39:37 10° E daylight
22 Jun - 09:50:41 10° WNW 09:55:25 86° SSW 10:02:43 10° ESE daylight
22 Jun - 12:10:11 10° WSW 12:16:32 78° S 12:28:23 10° E daylight
22 Jun - 14:29:48 10° WSW 14:38:47 65° NNW 14:55:40 10° NE daylight
22 Jun - 16:51:38 10° W 17:02:41 31° NNW 17:19:12 10° NNE daylight
23 Jun - 07:52:25 10° NW 07:56:31 36° NNE 08:01:08 10° E daylight
23 Jun - 10:11:35 10° W 10:16:27 75° S 10:24:07 10° E daylight
23 Jun - 12:31:03 10° WSW 12:37:39 86° SSE 12:50:09 10° ENE daylight
23 Jun - 14:50:51 10° W 15:00:01 53° NNW 15:16:42 10° NE daylight
23 Jun - 17:13:59 10° W 17:24:10 23° NW 17:38:13 10° N visible
24 Jun - 08:12:57 10° NW 08:17:17 55° NNE 08:22:24 10° E daylight
24 Jun - 10:32:31 10° W 10:37:31 70° S 10:45:36 10° E daylight
24 Jun - 12:51:55 10° WSW 12:58:47 84° NNW 13:11:49 10° ENE daylight
24 Jun - 15:12:03 10° W 15:21:19 43° NNW 15:37:21 10° NE daylight
24 Jun - 17:37:32 10° WNW 17:45:44 16° NW 17:56:00 10° N visible
25 Jun - 06:15:32 10° N 06:18:31 16° NNE 06:21:16 10° ENE visible
25 Jun - 08:33:43 10° WNW 08:38:08 78° NNE 08:43:35 10° ESE daylight
25 Jun - 10:53:26 10° W 10:58:36 71° S 11:07:10 10° E daylight
25 Jun - 13:12:49 10° WSW 13:19:53 71° NNW 13:33:18 10° ENE daylight
25 Jun - 15:33:31 10° W 15:42:40 33° NNW 15:57:31 10° NNE daylight
25 Jun - 18:07:15 10° NW 18:07:27 10° NW 18:07:38 10° NW visible
26 Jun - 06:35:16 10° NNW 06:39:21 25° NNE 06:43:03 10° E visible
26 Jun - 08:54:37 10° W 08:59:03 82° SSW 09:04:45 10° ESE daylight
26 Jun - 11:14:20 10° WSW 11:19:39 77° S 11:28:46 10° E daylight
26 Jun - 13:33:45 10° W 13:41:01 58° NNW 13:54:31 10° NE daylight
26 Jun - 15:55:25 10° W 16:04:05 25° NNW 16:17:05 10° NNE daylight
27 Jun - 06:55:36 10° NW 07:00:10 39° NNE 07:04:23 10° E daylight
27 Jun - 09:15:36 10° W 09:20:03 70° S 09:25:59 10° ESE daylight
27 Jun - 11:35:12 10° WSW 11:40:43 87° SSE 11:50:20 10° ENE daylight
27 Jun - 13:54:49 10° W 14:02:12 46° NNW 14:15:24 10° NE daylight
27 Jun - 16:18:06 10° WNW 16:25:35 18° NNW 16:35:43 10° N daylight
28 Jun - 04:58:12 10° N 05:00:57 13° NNE 05:03:20 10° NE visible
28 Jun - 07:16:17 10° WNW 07:21:00 59° NNE 07:25:30 10° E daylight
28 Jun - 09:36:34 10° W 09:41:04 66° S 09:47:17 10° E daylight
28 Jun - 11:56:03 10° WSW 12:01:43 79° NNW 12:11:48 10° ENE daylight
28 Jun - 14:16:04 10° W 14:23:26 35° NNW 14:35:52 10° NNE daylight
28 Jun - 16:42:56 10° NW 16:47:12 12° NNW 16:52:07 10° NNW daylight
